Hourly Data Report for May 27, 2012

All times are specified in Local Standard Time (LST). Add 1 hour to adjust for Daylight Saving Time where and when it is observed.

ST. JOHN'S INTL A
NEWFOUNDLAND

47°37'07.000" N
52°45'09.000" W
140.50 m
8403505
71801
YYT

Download Data

Hourly Data (May 2012)
Hourly Data Report for May 27, 2012
Temp Definition
°C
Dew Point Temp Definition
°C
Rel Hum Definition
%
Wind Dir Definition
10's deg

Wind Spd Definition
km/h
Visibility Definition
km
Stn Press Definition
kPa
Hmdx Definition


Wind Chill Definition


Weather Definition


TIME
00:30 9.8 9.5 98 25 28 10.0 99.22     LegendNANA
01:30 9.9 9.8 99 27 32 10.0 99.19     LegendNANA
02:30 9.2 9.2 100 26 28 2.4 99.22     Fog
03:30 9.4 9.4 100 27 26 0.8 99.18     Drizzle,Fog
04:30 9.2 9.4 101 27 24 4.8 99.21     Fog
05:30 9.1 9.3 101 27 24 10.0 99.22     Mostly Cloudy
06:30 9.4 9.3 99 29 27 10.0 99.30     LegendNANA
07:30 10.1 8.7 91 29 27 10.0 99.32     LegendNANA
08:30 11.4 7.0 74 33 20 10.0 99.30     Mainly Clear
09:30 12.5 5.9 64 35 16 10.0 99.32     LegendNANA
10:30 12.7 5.0 59 1 15 10.0 99.35     LegendNANA
11:30 12.6 4.6 58 1 30 10.0 99.35     Mostly Cloudy
12:30 8.5 3.0 68 36 33 10.0 99.44     LegendNANA
13:30 7.7 2.4 69 1 28 10.0 99.50     LegendNANA
14:30 7.5 1.2 64 3 33 10.0 99.55     Mainly Clear
15:30 7.1 0.8 64 3 32 10.0 99.59     LegendNANA
16:30 5.9 -0.6 63 4 38 10.0 99.66     LegendNANA
17:30 4.8 0.2 72 2 28 10.0 99.69     Mainly Clear
18:30 4.1 0.6 78 3 23 10.0 99.72     LegendNANA
19:30 2.8 0.2 83 2 12 10.0 99.80     LegendNANA
20:30 1.8 -0.1 87 2 12 10.0 99.81     Mainly Clear
21:30 0.9 -0.7 89 34 7 10.0 99.81     LegendNANA
22:30 0.2 -1.0 92 33 8 10.0 99.80     LegendNANA
23:30 -0.2 -1.5 91 30 14 10.0 99.83   -4 Mainly Clear

Notes on Data Quality.

Legend

  • E = Estimated
  • M = Missing
  • NA = Not Available
Date modified: